Middletown, OH

7:05 AM EDT on October 21, 2017 (GMT -0400)
Hook Field Municipal

Weather History for KMWO - April, 2013

Change the Weather History Date:

Monday, April 8, 2013

  Actual Average (KFFO) Record (KFFO)
Temperature  
Mean Temperature 60 °F -  
Max Temperature 72 °F 60 °F 80 °F (2001)
Min Temperature 48 °F 38 °F 23 °F (1997)
Degree Days  
Heating Degree Days 5    
Growing Degree Days 10 (Base 50)    
Moisture  
Dew Point 55 °F    
Average Humidity 82    
Maximum Humidity 100    
Minimum Humidity 59    
Precipitation  
Precipitation 0.00 in - - ()
Sea Level Pressure  
Sea Level Pressure 29.95 in    
Wind  
Wind Speed 7 mph (SW)    
Max Wind Speed 21 mph    
Max Gust Speed 29 mph    
Visibility 8 miles    
Events Fog , Rain    
Averages and records for this station are not official NWS values.
T = Trace of Precipitation, MM = Missing Value Source: NWS Daily Summary

Daily Weather History Graph

Daily Weather History Graph

Search for Another Location

Airport or City:

Trip Planner

Search our weather history database for the weather conditions in past years. The results will help you decide how hot, cold, wet, or windy it might be!

Date:

Astronomy

Apr. 08, 2013 Rise Set
Actual Time 7:10 AM EDT 8:08 PM EDT
Civil Twilight 6:43 AM EDT 8:36 PM EDT
Nautical Twilight 6:10 AM EDT 9:08 PM EDT
Astronomical Twilight 5:36 AM EDT 9:42 PM EDT
Moon 5:59 AM EDT (4/8) 6:42 PM EDT (4/8)
Length of Visible Light 13h 53m
Length of Day
12h 58m
Waning Crescent, 3% of the Moon is Illuminated
Apr 8
Waning Crescent
Apr 10
New
Apr 18
First Quarter
Apr 25
Full
May 2
Last Quarter

Hourly Weather History & Observations

Time (EDT) Temp. Dew Point Humidity Pressure Visibility Wind Dir Wind Speed Gust Speed Precip Events Conditions
12:15 AM 59.4 °F 54.9 °F 85% 30.01 in 10.0 mi WSW 8.1 mph - N/A   Overcast
12:35 AM 57.9 °F 54.3 °F 88% 30.01 in 10.0 mi SW 10.4 mph - N/A   Overcast
12:55 AM 57.7 °F 54.5 °F 89% 30.01 in 10.0 mi SSW 8.1 mph - N/A Rain Light Rain
1:15 AM 57.7 °F 55.6 °F 92% 30.03 in 10.0 mi WSW 8.1 mph - N/A Rain Rain
1:35 AM 57.7 °F 57.2 °F 98% 30.02 in 10.0 mi SSW 5.8 mph - N/A Rain Light Rain
1:55 AM 55.8 °F 55.4 °F 99% 30.00 in 10.0 mi Calm Calm - N/A Rain Light Rain
2:15 AM 55.4 °F 55.4 °F 100% 29.99 in 10.0 mi NE 4.6 mph - N/A   Overcast
2:35 AM 55.4 °F 55.4 °F 100% 29.98 in 10.0 mi Calm Calm - N/A   Mostly Cloudy
2:55 AM 55.4 °F 55.4 °F 100% 29.99 in 7.0 mi Calm Calm - N/A   Scattered Clouds
3:15 AM 53.6 °F 53.6 °F 100% 29.98 in 1.8 mi Calm Calm - N/A   Scattered Clouds
3:35 AM 52.7 °F 52.7 °F 100% 29.98 in 0.2 mi Calm Calm - N/A Fog Fog
3:55 AM 52.7 °F 52.7 °F 100% 29.97 in 0.2 mi Calm Calm - N/A Fog Fog
4:15 AM 52.7 °F 52.7 °F 100% 29.97 in 2.5 mi Calm Calm - N/A   Mostly Cloudy
4:35 AM 52.7 °F 52.7 °F 100% 29.97 in 1.2 mi Calm Calm - N/A   Overcast
4:55 AM 52.7 °F 52.7 °F 100% 29.96 in 0.5 mi Calm Calm - N/A Fog Fog
5:15 AM 52.7 °F 52.7 °F 100% 29.96 in 0.5 mi Calm Calm - N/A Fog Fog
5:35 AM 52.7 °F 52.7 °F 100% 29.96 in 1.0 mi Calm Calm - N/A   Overcast
5:55 AM 52.7 °F 52.7 °F 100% 29.96 in 1.5 mi Calm Calm - N/A   Overcast
6:15 AM 52.7 °F 52.7 °F 100% 29.96 in 0.5 mi Calm Calm - N/A Fog Fog
6:35 AM 50.2 °F 50.2 °F 100% 29.96 in 0.2 mi Calm Calm - N/A Fog Fog
6:55 AM 50.2 °F 50.2 °F 100% 29.95 in 0.5 mi Calm Calm - N/A Fog Fog
7:15 AM 48.6 °F 48.6 °F 100% 29.96 in 0.8 mi Calm Calm - N/A   Mist
7:35 AM 48.4 °F 48.4 °F 100% 29.97 in 0.8 mi Calm Calm - N/A   Mist
7:55 AM 52.7 °F 52.7 °F 100% 29.97 in 3.0 mi Calm Calm - N/A   Mostly Cloudy
8:15 AM 52.7 °F 52.7 °F 100% 29.97 in 4.0 mi Calm Calm - N/A   Scattered Clouds
8:35 AM 52.7 °F 52.7 °F 100% 29.97 in 7.0 mi Calm Calm - N/A   Mostly Cloudy
8:55 AM 52.7 °F 52.7 °F 100% 29.97 in 5.0 mi Calm Calm - N/A   Overcast
9:15 AM 54.0 °F 54.0 °F 100% 29.97 in 10.0 mi SSW 4.6 mph - N/A   Overcast
9:35 AM 55.4 °F 55.4 °F 100% 29.97 in 10.0 mi SW 6.9 mph - N/A   Overcast
9:55 AM 57.7 °F 54.3 °F 88% 29.96 in 10.0 mi SSW 8.1 mph - N/A   Overcast
10:15 AM 57.7 °F 52.5 °F 83% 29.95 in 10.0 mi SSW 9.2 mph - N/A   Overcast
10:35 AM 59.0 °F 52.9 °F 80% 29.94 in 10.0 mi SSW 5.8 mph - N/A   Overcast
10:55 AM 60.1 °F 52.9 °F 77% 29.94 in 10.0 mi SSW 10.4 mph - N/A   Overcast
11:15 AM 63.0 °F 54.3 °F 73% 29.93 in 10.0 mi SSW 12.7 mph 17.3 mph N/A   Mostly Cloudy
11:35 AM 67.6 °F 56.5 °F 67% 29.92 in 10.0 mi SSW 13.8 mph 21.9 mph N/A   Mostly Cloudy
11:55 AM 67.6 °F 56.5 °F 67% 29.93 in 10.0 mi SSW 13.8 mph - N/A   Overcast
12:15 PM 67.6 °F 55.9 °F 66% 29.92 in 10.0 mi SSW 13.8 mph - N/A   Overcast
12:35 PM 67.6 °F 55.9 °F 66% 29.92 in 10.0 mi SSW 16.1 mph 27.6 mph N/A   Overcast
12:55 PM 67.6 °F 56.3 °F 67% 29.93 in 10.0 mi SW 13.8 mph 18.4 mph N/A   Overcast
1:15 PM 67.6 °F 55.9 °F 66% 29.92 in 10.0 mi SW 13.8 mph 20.7 mph N/A   Overcast
1:35 PM 67.6 °F 56.3 °F 67% 29.92 in 10.0 mi SW 13.8 mph - N/A   Overcast
1:55 PM 67.6 °F 58.8 °F 73% 29.92 in 10.0 mi SW 13.8 mph 18.4 mph N/A   Light Drizzle
2:15 PM 71.4 °F 58.8 °F 64% 29.91 in 10.0 mi SSW 16.1 mph 24.2 mph N/A   Overcast
2:35 PM 70.2 °F 57.7 °F 65% 29.91 in 10.0 mi SSW 13.8 mph 23.0 mph N/A   Overcast
2:55 PM 72.7 °F 59.0 °F 62% 29.90 in 10.0 mi SW 16.1 mph 25.3 mph N/A   Overcast
3:15 PM 72.7 °F 58.3 °F 60% 29.90 in 10.0 mi SW 16.1 mph 25.3 mph N/A   Overcast
3:35 PM 72.7 °F 58.3 °F 60% 29.89 in 10.0 mi SSW 19.6 mph 25.3 mph N/A   Overcast
3:55 PM 72.7 °F 58.3 °F 60% 29.89 in 10.0 mi SW 20.7 mph 27.6 mph N/A   Overcast
4:15 PM 72.7 °F 58.5 °F 61% 29.89 in 10.0 mi SW 15.0 mph 24.2 mph N/A   Overcast
4:35 PM 72.7 °F 59.0 °F 62% 29.89 in 10.0 mi SSW 16.1 mph 23.0 mph N/A   Overcast
4:55 PM 72.7 °F 59.0 °F 62% 29.89 in 10.0 mi SSW 15.0 mph 20.7 mph N/A   Overcast
5:15 PM 72.7 °F 57.7 °F 59% 29.89 in 10.0 mi SW 18.4 mph 28.8 mph N/A   Scattered Clouds
5:35 PM 72.7 °F 57.7 °F 59% 29.89 in 10.0 mi SW 15.0 mph - N/A   Clear
5:55 PM 72.7 °F 57.9 °F 60% 29.90 in 10.0 mi SW 19.6 mph 24.2 mph N/A   Clear
6:15 PM 72.7 °F 58.1 °F 60% 29.91 in 10.0 mi SW 17.3 mph 20.7 mph N/A   Scattered Clouds
6:35 PM 72.7 °F 58.6 °F 61% 29.92 in 10.0 mi SW 18.4 mph 24.2 mph N/A   Mostly Cloudy
6:55 PM 72.7 °F 59.0 °F 62% 29.92 in 10.0 mi SW 16.1 mph 25.3 mph N/A   Mostly Cloudy
7:15 PM 70.2 °F 57.7 °F 65% 29.92 in 10.0 mi SW 15.0 mph - N/A   Scattered Clouds
7:35 PM 67.8 °F 56.7 °F 67% 29.94 in 10.0 mi SW 10.4 mph - N/A   Mostly Cloudy
7:55 PM 67.6 °F 56.7 °F 68% 29.94 in 10.0 mi SSW 11.5 mph - N/A   Scattered Clouds
8:15 PM 67.6 °F 57.2 °F 69% 29.94 in 10.0 mi SSW 11.5 mph - N/A   Clear
8:35 PM 67.6 °F 58.1 °F 71% 29.94 in 10.0 mi SSW 9.2 mph - N/A   Clear
8:55 PM 67.6 °F 59.0 °F 74% 29.95 in 10.0 mi SSW 8.1 mph - N/A   Clear
9:15 PM 62.6 °F 56.1 °F 79% 29.96 in 10.0 mi SW 6.9 mph - N/A   Clear
9:35 PM 60.8 °F 55.4 °F 82% 29.97 in 10.0 mi SW 6.9 mph - N/A   Clear
9:55 PM 60.1 °F 55.4 °F 85% 29.97 in 10.0 mi SW 5.8 mph - N/A   Clear
10:15 PM 59.7 °F 54.9 °F 84% 29.98 in 10.0 mi Calm Calm - N/A   Clear
10:35 PM 57.7 °F 54.7 °F 90% 29.99 in 10.0 mi Calm Calm - N/A   Clear
10:55 PM 57.7 °F 55.9 °F 94% 30.00 in 10.0 mi Calm Calm - N/A   Clear
11:15 PM 55.4 °F 53.8 °F 94% 30.00 in 10.0 mi SW 3.5 mph - N/A   Clear
11:35 PM 55.4 °F 54.9 °F 98% 30.00 in 10.0 mi Calm Calm - N/A   Clear
11:55 PM 55.4 °F 54.5 °F 97% 30.01 in 10.0 mi Calm Calm - N/A   Clear